This demonstration page uses our WeatherBlox Daily Observations layout. Learn more.

Left ArrowRight Arrow

39.01783, -85.05884

Hourly Observations for March 31, 2019

Temp ( °F °C ) Dew Point ( °F °C ) Humidity (%) Winds ( mph kmh ) Pressure ( in mb ) Visibility ( mi km ) Precip ( " mm )
12:52 am 00:52 Cloudy 37 2.8 33 0.6 86 86 NW 20 31 29.93 1014 10 16 N/A
1:38 am 01:38 Cloudy 36 2.2 32 undefined 86 86 NW 14 22 29.99 1016 10 16 N/A
1:52 am 01:52 Cloudy 36 2.2 32 undefined 86 86 WNW 20 31 29.96 1015 10 16 N/A
2:52 am 02:52 Cloudy 35 1.7 31 -0.6 85 85 NW 15 24 29.99 1016 10 16 N/A
3:44 am 03:44 Cloudy 35 1.7 29 -1.7 78 78 NW 16 26 30.05 1018 10 16 N/A
3:52 am 03:52 Cloudy 35 1.7 29 -1.7 78 78 NNW 13 20 30.01 1016 10 16 N/A
4:52 am 04:52 Cloudy 33 0.6 24 -4.4 70 70 NW 15 24 30.04 1017 10 16 N/A
5:19 am 05:19 Cloudy 33 0.6 21 -6.1 61 61 NNW 16 26 30.10 1019 10 16 N/A
5:52 am 05:52 Cloudy 32 undefined 18 -7.8 56 56 NNW 24 39 30.09 1019 10 16 N/A
6:52 am 06:52 Partly Cloudy 30 -1.1 19 -7.2 64 64 NNW 13 20 30.13 1020 10 16 N/A
7:52 am 07:52 Partly Cloudy 29 -1.7 19 -7.2 66 66 NW 18 30 30.17 1022 10 16 N/A
8:52 am 08:52 Partly Cloudy 29 -1.7 17 -8.3 61 61 NNW 17 28 30.21 1023 10 16 N/A
9:52 am 09:52 Mostly Sunny 30 -1.1 17 -8.3 58 58 NNW 20 31 30.23 1024 10 16 N/A
10:52 am 10:52 Partly Cloudy 33 0.6 20 -6.7 58 58 NNW 15 24 30.25 1024 10 16 N/A
11:52 am 11:52 Partly Cloudy 34 1.1 18 -7.8 52 52 NNW 18 30 30.26 1025 10 16 N/A
12:52 pm 12:52 Mostly Cloudy 35 1.7 19 -7.2 52 52 NW 17 28 30.26 1025 10 16 N/A
1:52 pm 13:52 Mostly Cloudy 34 1.1 18 -7.8 52 52 WNW 14 22 30.27 1025 10 16 N/A
2:52 pm 14:52 Cloudy 35 1.7 18 -7.8 50 50 NW 20 31 30.27 1025 10 16 N/A
3:52 pm 15:52 Mostly Cloudy 38 3.3 20 -6.7 48 48 WNW 16 26 30.26 1025 10 16 N/A
4:52 pm 16:52 Mostly Cloudy 38 3.3 18 -7.8 44 44 WNW 20 31 30.26 1025 10 16 N/A
5:52 pm 17:52 Mostly Cloudy 37 2.8 19 -7.2 48 48 NW 16 26 30.28 1026 10 16 N/A
6:52 pm 18:52 Mostly Cloudy 35 1.7 18 -7.8 50 50 NW 12 19 30.30 1026 10 16 N/A
7:52 pm 19:52 Mostly Cloudy 33 0.6 17 -8.3 52 52 NNW 13 20 30.32 1027 10 16 N/A
8:52 pm 20:52 Mostly Cloudy 32 undefined 17 -8.3 54 54 NNW 13 20 30.34 1027 10 16 N/A
9:52 pm 21:52 Mostly Clear 31 -0.6 17 -8.3 56 56 NW 7 11 30.36 1028 10 16 N/A
10:52 pm 22:52 Clear 30 -1.1 17 -8.3 58 58 NW 5 7 30.37 1028 10 16 N/A
11:52 pm 23:52 Clear 30 -1.1 17 -8.3 58 58 NNW 5 7 30.38 1029 10 16 N/A

Powered by AerisWeather